Location: Casa Terzi
(44.7333°N, 10.3500°E)
Time: 19:33:06
(UTC+00:00)

Daily predictions for brighter satellites

Satellite Brightness Start Highest point End
(mag) Time Altitude Azimuth Time Altitude Azimuth Time Altitude Azimuth
Meteor 1-5 Rocket 4.5 17:34:38 10° SSE 17:39:44 44° E 17:45:01 10° NNE
IRS-1C Rocket 4.1 17:37:15 10° SSE 17:42:30 74° ENE 17:47:47 10° N
SL-4 R/B 1.7 17:39:52 10° NW 17:43:26 61° NNE 17:46:50 10° ESE
Cosmos 1536 4.3 17:41:09 10° SE 17:43:42 17° E 17:46:17 10° NE
COSMO-SKYMED 1 2.9 17:40:04 10° N 17:44:25 73° WNW 17:48:44 10° SSW
Cosmos 1633 Rocket 4.3 17:40:58 10° SSW 17:45:15 48° WNW 17:49:33 10° N
FALCON 9 DEB 4.2 17:43:21 10° NW 17:46:11 28° NNE 17:48:59 10° E
SeaSat 1 3.6 17:43:16 10° NE 17:47:02 22° ESE 17:50:47 10° SSE
Cosmos 2242 Rocket 3.7 17:43:50 10° N 17:48:15 55° ENE 17:52:36 10° SSE
MOS 1 Rocket 4.3 17:44:34 10° N 17:49:41 59° WNW 17:54:58 10° SSW
Gbstr 26 Del rocket 4.2 17:46:26 10° WNW 17:50:33 37° N 17:55:30 10° ENE
Cosmos 2333 Rocket 2.4 17:47:17 10° S 17:52:45 51° ESE 17:58:17 10° NE
Abrixas rocket 1.8 17:52:07 10° WNW 17:54:32 51° NNE 17:56:40 12° E
Cosmos 2322 Rocket 3.7 17:53:50 10° SW 17:59:03 39° NW 18:04:21 10° NNE
Helios 1A Rocket 3.2 17:55:20 10° SE 17:59:09 43° ENE 18:03:00 10° N
Meteor 2-4 Rocket 3.8 17:53:21 10° N 17:59:17 84° E 18:05:14 10° SSE
SAR-Lupe-1 4.3 17:56:22 10° NNE 17:59:50 45° E 18:03:17 10° S
Lacrosse 4 Rocket 1.6 17:55:46 10° SSW 18:00:06 61° ESE 18:04:32 10° NE
GP-B 3.2 17:56:45 10° SSE 18:01:03 53° E 18:05:23 10° N
DELTA 2 R/B (1) 4.3 17:56:05 10° SW 18:01:11 39° SSE 18:05:50 12° E
Nadezhda 3 Rocket 4.5 17:55:35 10° NNW 18:01:55 69° W 18:08:13 10° S
ARGOS 3.2 17:57:54 10° SSE 18:03:16 67° ENE 18:08:40 10° N
Cosmos 192 4.3 18:01:42 10° S 18:06:33 67° ESE 18:11:27 10° NNE
Cosmos 1869 Rocket 3.8 18:03:25 10° SSE 18:07:35 45° E 18:11:48 10° NNE
CZ-4 R/B 1.7 18:04:53 10° S 18:08:44 67° WSW 18:12:41 10° NNW
Cosmos 2219 Rocket 2.2 18:03:45 10° S 18:09:13 61° ESE 18:14:46 10° NNE
CZ-4B R/B 3.3 18:08:06 10° N 18:10:53 31° WNW 18:13:41 10° SW
FALCON 9 DEB 3.5 18:11:57 10° NW 18:14:59 41° NNE 18:16:47 20° E
ERS-2 2.0 18:11:52 10° NNE 18:15:32 76° ESE 18:19:11 10° S
Cosmos 1238 Rocket 3.6 18:12:18 10° SSE 18:15:49 27° E 18:18:52 10° NNE
CZ-2C R/B 2.7 18:10:38 10° NNE 18:16:00 58° E 18:21:12 10° S
Cosmos 1689 Rocket 1.9 18:14:12 10° NNE 18:17:06 88° WNW 18:19:59 10° SSW
SL-08 RB Rocket 3.7 18:13:45 10° SSE 18:18:13 63° ENE 18:22:46 10° N
Cosmos 1378 3.7 18:16:03 10° N 18:19:30 35° ENE 18:22:46 11° SE
USA 305 4.1 18:16:14 10° NW 18:20:04 31° NNE 18:22:40 17° ENE
NOSS 3-2 (A) 3.6 18:16:36 10° S 18:21:48 44° ESE 18:27:41 10° NE
CREW DRAGON DEMO-1 DEB 2.5 18:19:38 10° SW 18:22:26 78° SSE 18:23:59 24° ENE
HJ-1C 3.4 18:19:33 10° S 18:22:51 79° WSW 18:26:09 10° NNW
COSMOS 2428 2.7 18:18:20 10° SSW 18:23:57 67° ESE 18:29:37 10° NNE
FALCON 9 DEB 3.5 18:21:24 10° NW 18:24:28 42° NNE 18:25:51 25° E
Cosmos 1733 Rocket 4.1 18:21:35 10° SE 18:25:00 23° E 18:28:27 10° NE
SL-8 Rocket 4.0 18:26:40 10° S 18:32:53 88° E 18:39:07 10° N
CENTAUR R/B 2.9 18:28:21 10° S 18:33:32 36° ESE 18:39:33 10° NE
USA 307 3.9 18:29:59 10° NW 18:33:53 33° NNE 18:35:52 22° ENE
USA 306 3.9 18:31:14 10° NW 18:35:11 34° NNE 18:37:06 23° ENE
NOSS 0 Rocket 4.2 18:29:36 10° S 18:35:21 43° ESE 18:41:07 10° NE
ATLAS CENTAUR R/B 3.9 18:33:29 10° W 18:35:52 16° NW 18:38:17 10° N
Cosmos 1066 Rocket 4.2 18:32:14 10° N 18:38:01 69° ENE 18:43:50 10° SSE
Cosmos 1743 3.3 18:36:03 10° SSE 18:39:33 33° E 18:43:05 10° NNE
Cosmos 1666 3.8 18:37:49 10° SSW 18:41:24 45° WNW 18:45:01 10° N
CSL-04 Rocket 4.0 18:38:45 10° S 18:44:16 72° WSW 18:49:46 10° NNW
USA 308 3.8 18:40:47 10° NW 18:44:46 36° NNE 18:46:15 28° ENE
Cosmos 2322 4.3 18:39:20 10° SW 18:44:59 59° WNW 18:50:39 10° NNE
Okean-O 4.3 18:43:34 10° SSW 18:47:37 34° W 18:51:40 10° NNW
Meteor 1-23 Rocket 4.2 18:42:50 10° N 18:48:25 64° ENE 18:54:03 10° SSE
BREEZE-M DEB (TANK) 2.4 18:47:27 10° WSW 18:49:47 77° SSE 18:50:06 64° E
Cosmos 2366 rocket 4.1 18:44:48 10° S 18:51:08 84° W 18:57:33 10° N
H-2A R/B 3.9 18:46:46 10° SSW 18:51:41 34° W 18:56:36 10° NNW
ASTEX 1 3.3 18:47:33 10° NNE 18:52:24 60° E 18:57:13 10° S
SJ-6B 2.8 18:52:44 32° SE 18:54:27 61° ENE 18:58:25 10° N
Cosmos 1674 Rocket 4.3 18:51:47 10° N 18:55:15 32° ENE 18:55:15 32° ENE
Ariane Rocket 3.1 18:55:34 29° SE 18:58:00 54° ENE 19:02:58 10° N
Cosmos 990 Rocket 4.3 18:53:27 10° N 18:58:26 44° ENE 18:59:41 38° E
USA 186 2.3 18:59:36 40° NNW 18:59:36 40° NNW 19:01:26 10° NNW
Cosmos 2221 Rocket 3.4 18:55:22 10° N 18:59:48 71° E 19:02:11 27° SSE
Cosmos 1763 Rocket 3.9 18:56:25 10° S 19:01:20 40° ESE 19:06:17 10° NE
OBJECT-B 1.3 19:02:09 45° NNE 19:02:09 45° NNE 19:04:37 10° N
NOSS 3-2 (C) 3.4 18:58:09 10° SSW 19:03:29 51° ESE 19:08:11 17° NE
SL-08 R/B 4.5 18:57:44 10° S 19:04:10 76° E 19:10:39 10° N
Meteor 1-11 Rocket 4.2 18:59:35 10° SSW 19:05:12 63° WNW 19:10:46 10° N
Cosmos 1378 Rocket 4.3 19:06:02 10° N 19:09:21 35° NE 19:09:21 35° NE
Cosmos 468 Rocket 4.0 19:07:50 10° S 19:12:59 53° ESE 19:18:07 10° NNE
FALCON 9 DEB 3.5 19:11:08 10° WNW 19:13:45 55° WNW 19:13:45 55° WNW
Cosmos 1821 Rocket 3.9 19:09:13 10° S 19:15:21 67° E 19:21:28 10° NNE
Cosmos 1943 Rocket 3.7 19:11:25 10° N 19:15:25 20° NE 19:15:25 20° NE
Cosmos 2237 Rocket 2.1 19:10:43 10° SSW 19:16:21 67° ESE 19:22:01 10° NNE
Cosmos 1544 3.2 19:13:42 10° SSW 19:17:19 74° W 19:21:00 10° N
SJ 16-02 1.6 19:13:07 10° NNW 19:17:30 66° WSW 19:19:19 34° S
Cosmos 1727 Rocket 4.1 19:11:36 10° N 19:17:48 76° W 19:24:00 10° S
DMSP B5D2-2 4.5 19:13:08 10° N 19:18:18 63° WNW 19:23:26 10° SSW
MOS 1 4.2 19:15:42 28° SSE 19:18:50 82° ENE 19:24:31 10° NNW
Cosmos 1536 4.3 19:16:04 10° SW 19:19:48 38° WNW 19:23:32 10° N
Cosmos 2278 Rocket 2.1 19:14:09 10° NNW 19:19:51 87° WSW 19:22:11 37° SSE
USA 81 3.9 19:15:55 10° S 19:21:09 76° E 19:26:25 10° N
FALCON 9 DEB 4.2 19:19:03 10° WNW 19:21:22 40° W 19:21:22 40° W
Cosmos 1000 Rocket 4.4 19:16:13 10° N 19:22:32 71° E 19:25:17 35° SSE
SL-4 R/B 3.5 19:19:56 10° W 19:22:41 22° SW 19:22:57 22° SW
SPOT 3 Rocket 3.9 19:24:24 47° ENE 19:24:24 47° ENE 19:29:08 10° N
SeaSat 1 3.0 19:19:59 10° NNE 19:24:50 57° WNW 19:29:39 10° SW
Cosmos 2239 Rocket 4.4 19:18:50 10° S 19:25:03 66° E 19:31:16 10° NNE
Cosmos 1934 Rocket 4.2 19:30:07 45° ENE 19:30:07 45° ENE 19:35:07 10° NNE
Resurs 01 Rocket 2.7 19:31:41 34° NNE 19:31:41 34° NNE 19:34:25 10° N
SME Rocket 4.1 19:25:43 10° NNE 19:32:55 72° WNW 19:37:40 10° SSW
Meteor 2-20 Rocket 4.4 19:27:47 10° N 19:33:56 85° W 19:37:10 30° S
USA 234 3.1 19:33:09 41° ENE 19:35:33 70° SE 19:42:05 10° SW
Cosmos 2333 Rocket 4.1 19:32:24 10° WSW 19:37:18 29° NW 19:42:15 10° N
Gbstr 26 Del rocket 3.4 19:33:05 10° WNW 19:37:59 78° NNE 19:38:19 74° ENE
Lacrosse 4 Rocket 4.1 19:35:55 10° W 19:39:11 20° NW 19:42:30 10° N
Cosmos 1937 Rocket 3.7 19:35:27 10° NNW 19:39:50 55° NNE 19:39:50 55° NNE
Cosmos 2123 Rocket 3.9 19:34:51 10° N 19:41:01 61° ENE 19:41:01 61° ENE
USA 238 DEB 3.8 19:36:56 10° SW 19:43:29 70° NW 19:50:23 10° NE
USA 238 3.8 19:37:03 10° SW 19:43:36 71° NW 19:50:29 10° NE
Resurs 1-3 3.9 19:45:27 63° WNW 19:45:27 63° WNW 19:49:22 10° NNW
DELTA 2 R/B (1) 4.0 19:41:47 10° WSW 19:46:36 49° SSW 19:46:36 49° SSW
Cosmos 2219 Rocket 4.3 19:49:05 10° WSW 19:53:36 24° NW 19:58:10 10° N
USA 305 4.3 19:56:07 10° NW 19:58:46 37° WNW 19:58:46 37° WNW
Cosmos 1980 4.3 19:55:41 10° SW 20:01:12 54° WNW 20:06:46 10° NNE
Cosmos 1898 Rocket 4.5 20:15:03 10° NNW 20:19:30 43° W 20:19:30 43° W
Cosmos 2369 Rocket 3.9 20:15:21 10° N 20:18:00 23° NNE 20:18:00 23° NNE
CENTAUR R/B 3.3 20:18:06 10° WSW 20:23:55 50° NW 20:30:53 10° NNE
Cosmos 1943 Rocket 3.9 20:54:20 10° NNW 20:56:57 29° NNW 20:56:57 29° NNW
Cosmos 2237 Rocket 4.3 20:56:26 10° W 21:00:55 23° NW 21:05:26 10° N
USA 234 4.5 21:20:31 36° WNW 21:20:31 36° WNW 21:24:36 10° W
